Location: Alexander
(41.3564°N, 81.5960°W)
Time: 09:28:47
(UTC+00:00)

MOS 1 Rocket - Pass Details

Date: 24 January 2021
Orbit: 614 x 830 km, 97.4° (Epoch: 02 March)

Event Time Altitude Azimuth Distance (km) Brightness Sun altitude
Rises 23:39:00 0° 13° (NNE) 2,900 6.2 -12.5°
Reaches altitude 10° 23:41:12 10° 14° (NNE) 1,984 5.4 -12.9°
Maximum altitude 23:45:29 80° 101° (E) 631 3.0 -13.6°
Drops below altitude 10° 23:49:47 10° 189° (S) 1,991 5.9 -14.4°
Sets 23:52:00 0° 191° (S) 2,911 6.8 -14.8°
